Home   Weather   Schaffhausen   Past weeks

Flag for Switzerland Past Weather in Schaffhausen, Schaffhausen, Switzerland — Yesterday and Last 2 Weeks

Now
45 °F

Quite cool.


Feels Like: 45 °F
Forecast: 32 / 50 °F
Wind: 1 mph from Southeast

Location: Zurich-Kloten

Current Time: Feb 25, 2017 at 7:09:03 pm

Latest Report: Feb 25, 2017 at 6:00 pm


Visibility: N/A

Pressure: 30.16 "Hg

Humidity: 43%

Dew Point: 24 °F

Location of SchaffhausenLocation

Past Weather in Schaffhausen — Graph

°F

Schaffhausen Temperature Yesterday

Maximum temperature yesterday: 51 °F (at 12:00 am)
Minimum temperature yesterday: 31 °F (at 11:00 pm)
Average temperature yesterday: 42 °F

High & Low Weather Summary for the Past Weeks

 TemperatureHumidityPressure
High67 °F (Feb 23, 3:00 pm)100% (Feb 15, 3:00 am)30.67 "Hg (Feb 15, 3:00 am)
Low24 °F (Feb 19, 5:00 am)19% (Feb 23, 4:00 pm)29.59 "Hg (Feb 23, 5:00 pm)
Average39 °F80%30.26 "Hg
* Reported Feb 10 5:00 pm — Feb 25 5:00 pm, Schaffhausen, Weather by CustomWeather, © 2017

Note: Actual official high and low records may vary slightly from our data, if they occured in-between our weather recording intervals... More about our weather records

Advertising

Schaffhausen Weather History for the Previous 24 Hours

Scroll right to see more
 ConditionsComfort  
Time TempWeatherWind HumidityBarometerVisibility
5:00 pm
Sat, Feb 25
46 °FCool.5 mph44%30.15 "HgN/A
4:00 pm47 °FScattered clouds.8 mph47%30.14 "Hg16 mi
3:00 pm48 °FCool.7 mph51%30.15 "HgN/A
2:00 pm45 °FCool.12 mph56%30.18 "HgN/A
1:00 pm40 °FPassing clouds.7 mph75%30.24 "Hg9 mi
12:00 pm36 °FChilly.7 mph83%30.27 "HgN/A
11:00 am35 °FChilly.6 mph88%30.28 "HgN/A
10:00 am33 °FFog.5 mph91%30.27 "Hg2 mi
9:00 am30 °FChilly.3 mph97%30.27 "HgN/A
8:00 am27 °FChilly.1 mph100%30.27 "HgN/A
7:00 am27 °FFog.1 mph99%30.27 "Hg0 mi
6:00 am26 °FChilly.2 mph100%30.27 "HgN/A
5:00 am27 °FChilly.1 mph100%30.26 "HgN/A
4:00 am27 °FFog.2 mph98%30.25 "Hg1 mi
3:00 am26 °FChilly.5 mph99%30.27 "HgN/A
2:00 am30 °FChilly.1 mph97%30.24 "HgN/A
1:00 am30 °FPassing clouds.5 mph96%30.23 "Hg12 mi
12:00 am31 °FChilly.2 mph95%30.22 "HgN/A
11:00 pm
Fri, Feb 24
31 °FChilly.1 mph95%30.20 "HgN/A
10:00 pm33 °FPassing clouds.1 mph93%30.18 "Hg11 mi
9:00 pm34 °FChilly.2 mph92%30.16 "HgN/A
8:00 pm36 °FChilly.1 mph85%30.13 "HgN/A
7:00 pm37 °FSprinkles. Overcast.7 mph84%30.09 "Hg11 mi
Weather by CustomWeather, © 2017

See weather overviewHow to use our weather pages